Meteo Giornale » Osservazioni meteo Stati Uniti (USA) » Hayward Air Terminal
ore: 11:54 - Osservazioni Meteo Hayward Air Terminal
Lat. 37° 39' N Lon. 122° 7' W Alt. 14 metri s.l.m.
19 °C
Coperto
Temp. 24 Ore
17 °C
19 °C
Sud-Ovest
9.3 Km/h
Dew point 9 °C
Umidità 52 %
Visibilità 10 Km
Il sole sorge alle ore 06:38
Il sole tramonta alle ore 19:37
| Data e Ora | Cielo e Fenomeni | T °C | DP °C | Um. % | Pres. hPa | Vis. km | Vento km/h | |
|---|---|---|---|---|---|---|---|---|
| Oggi h: 11:54 | Coperto | 19 | 9 | 52 | 1017 | 10 | SO 9.3 | |
| Oggi h: 10:54 | Coperto | 19 | 10 | 55 | 1017 | 10 | O/SO 13 | |
| Oggi h: 09:54 | Coperto | 19 | 10 | 55 | 1016 | 10 | SO 13 | |
| Oggi h: 08:54 | Coperto | 18 | 11 | 63 | 1016 | 14 | O 14.8 | |
| Oggi h: 07:54 | Coperto | 17 | 11 | 67 | 1015 | 14 | SO 13 | |
| Oggi h: 06:54 | Coperto | 17 | 11 | 67 | 1014 | 14 | SO 11.1 | |
| Oggi h: 05:54 | Coperto | 17 | 11 | 67 | 1014 | 10 | SO 13 | |
| Oggi h: 04:54 | Coperto | 17 | 11 | 67 | 1014 | 10 | SO 11.1 | |
| Oggi h: 03:54 | Coperto | 17 | 11 | 67 | 1014 | 10 | SO 16.7 | |
| Oggi h: 02:54 | Coperto | 17 | 11 | 67 | 1014 | 10 | SO 11.1 | |
| Oggi h: 01:54 | Coperto | 17 | 10 | 63 | 1014 | 10 | SO 13 | |
| Oggi h: 01:35 | Coperto | 17 | 10 | 63 | 1014 | 10 | SO 14.8 | |
| Oggi h: 01:06 | Coperto | 17 | 10 | 63 | 1014 | 10 | O/SO 14.8 | |
| Oggi h: 00:54 | Coperto | 17 | 10 | 63 | 1014 | 14 | O/SO 13 | |
| Oggi h: 00:07 | Coperto | 17 | 11 | 67 | 1014 | 14 | O 13 | |
| Ieri h: 23:54 | Coperto | 17 | 11 | 67 | 1014 | 14 | O/SO 14.8 | |
| Ieri h: 23:12 | Coperto | 17 | 10 | 63 | 1014 | 14 | O/SO 18.5 | |
| Ieri h: 22:54 | Coperto | 17 | 11 | 67 | 1014 | 14 | O 16.7 | |
| Ieri h: 21:54 | Coperto | 17 | 11 | 67 | 1014 | 14 | O 16.7 | |
| Ieri h: 20:54 | Coperto | 17 | 11 | 67 | 1014 | 14 | O 16.7 | |
| Ieri h: 19:54 | Molto Nuvoloso | 17 | 11 | 67 | 1013 | 13 | O 18.5 | |
| Ieri h: 19:40 | Molto Nuvoloso | 17 | 11 | 67 | 1013 | 13 | O 16.7 | |
| Ieri h: 19:33 | Nuvoloso | 17 | 11 | 67 | 1013 | 13 | O 18.5 | |
| Ieri h: 18:54 | Molto Nuvoloso | 17 | 11 | 67 | 1013 | 13 | O 16.7 | |
| Ieri h: 17:54 | Coperto | 18 | 12 | 67 | 1013 | 13 | O 20.3 | |
| Ieri h: 16:54 | Molto Nuvoloso | 19 | 12 | 63 | 1013 | 13 | O 22.2 | |
| Ieri h: 15:54 | Molto Nuvoloso | 19 | 12 | 63 | 1014 | 13 | O 20.3 | |
| Ieri h: 14:54 | Coperto | 18 | 13 | 72 | 1014 | 13 | O/NO 20.3 | |
| Ieri h: 13:54 | Coperto | 18 | 12 | 67 | 1015 | 13 | O 18.5 | |
| Ieri h: 12:54 | Coperto | 18 | 12 | 67 | 1015 | 13 | O 18.5 | |



